Weather History for 40270 - December, 2013

Change the Weather History Date:

Saturday, December 7, 2013

  Actual Average Record
Temperature  
Mean Temperature 53 °F -  
Max Temperature 59 °F 55 °F - ()
Min Temperature 47 °F 41 °F - ()
Degree Days  
Heating Degree Days 12    
Growing Degree Days 3 (Base 50)    
Moisture  
Dew Point 44 °F    
Average Humidity 71    
Maximum Humidity 87    
Minimum Humidity 45    
Precipitation  
Precipitation 0.00 in 0.07 in - ()
Sea Level Pressure  
Sea Level Pressure 30.09 in    
Wind  
Wind Speed 5 mph ()    
Max Wind Speed 16 mph    
Max Gust Speed -    
Visibility 3.2 miles    
Events      
T = Trace of Precipitation, MM = Missing Value Source: Averaged Metar Reports

Daily Weather History Graph

Daily Weather History Graph

Search for Another Location

Airport or City:

Trip Planner

Search our weather history database for the weather conditions in past years. The results will help you decide how hot, cold, wet, or windy it might be!

Date:

Astronomy

Dec. 07, 2013 Rise Set
Actual Time 7:23 AM EEST 5:31 PM EEST
Civil Twilight 6:56 AM EEST 5:58 PM EEST
Nautical Twilight 6:26 AM EEST 6:28 PM EEST
Astronomical Twilight 5:56 AM EEST 6:58 PM EEST
Moon 11:05 AM EEST (12/7) 10:36 PM EEST (12/7)
Length of Visible Light 11h 01m
Length of Day
10h 08m
Waxing Crescent, 25% of the Moon is Illuminated
Dec 7
Waxing Crescent
Dec 9
First Quarter
Dec 17
Full
Dec 25
Last Quarter
Jan 1
New

Hourly Weather History & Observations

Time (EEST) Temp. Dew Point Humidity Pressure Visibility Wind Dir Wind Speed Gust Speed Precip Events Conditions
12:00 AM 50 °F 46 °F 81% 30.11 in 3 mi West 8.9 mph - -   Haze
12:00 AM 50.0 °F 46.4 °F 87% 30.12 in 3.7 mi West 4.6 mph - N/A   Partly Cloudy
1:00 AM 50.0 °F 46.4 °F 87% 30.12 in 3.7 mi West 4.6 mph - N/A   Partly Cloudy
2:00 AM 50.0 °F 46.4 °F 87% 30.12 in 3.7 mi West 4.6 mph - N/A   Partly Cloudy
3:00 AM 49 °F 43 °F 74% 30.07 in 3 mi Calm Calm - -   Haze
3:00 AM 50.0 °F 42.8 °F 76% 30.09 in 3.1 mi Calm Calm - N/A   Haze
4:00 AM 50.0 °F 44.6 °F 82% 30.09 in 3.1 mi Calm Calm - N/A   Haze
5:00 AM 50.0 °F 44.6 °F 82% 30.09 in 3.1 mi Calm Calm - N/A   Haze
6:00 AM 49 °F 43 °F 74% 30.07 in 3 mi South 8.9 mph - -   Haze
6:00 AM 50.0 °F 42.8 °F 76% 30.09 in 3.1 mi Calm Calm - N/A   Haze
7:00 AM 48.2 °F 42.8 °F 82% 30.09 in 3.1 mi WSW 6.9 mph - N/A   Haze
8:00 AM 48.2 °F 42.8 °F 82% 30.09 in 2.5 mi South 5.8 mph - N/A   Haze
9:00 AM 50 °F 44 °F 72% 30.07 in 2 mi SW 4.6 mph - -   Haze
9:00 AM 50.0 °F 44.6 °F 82% 30.06 in 2.5 mi SW 4.6 mph - N/A   Haze
10:00 AM 53.6 °F 44.6 °F 72% 30.09 in 3.1 mi Calm Calm - N/A   Haze
11:00 AM 53.6 °F 37.4 °F 54% 30.09 in 3.1 mi South 6.9 mph - N/A   Haze
12:00 PM 56 °F 44 °F 54% 30.07 in 4 mi SSW 11.2 mph - -   Haze
12:00 PM 55.4 °F 44.6 °F 67% 30.09 in 3.7 mi SSW 5.8 mph - N/A   Haze
1:00 PM 57.2 °F 42.8 °F 59% 30.09 in 3.7 mi WSW 6.9 mph - N/A   Haze
3:00 PM 58 °F 42 °F 45% 30.06 in 4 mi West 12.7 mph - -   Haze
3:00 PM 59.0 °F 42.8 °F 55% 30.09 in 3.7 mi West 12.7 mph - N/A   Mostly Cloudy
4:00 PM 57.2 °F 44.6 °F 63% 30.09 in 3.1 mi WSW 10.4 mph - N/A   Haze
5:00 PM 55.4 °F 44.6 °F 67% 30.09 in 3.1 mi West 5.8 mph - N/A   Haze
6:00 PM 55 °F 44 °F 58% 30.08 in 3 mi West 15.7 mph - -   Haze
6:00 PM 55.4 °F 44.6 °F 67% 30.09 in 3.1 mi West 8.1 mph - N/A   Haze
7:00 PM 53.6 °F 44.6 °F 72% 30.09 in 3.1 mi West 9.2 mph - N/A   Haze
8:00 PM 53.6 °F 42.8 °F 67% 30.09 in 3.1 mi West 5.8 mph - N/A   Haze
9:00 PM 53 °F 43 °F 61% 30.07 in 3 mi West 9.2 mph - -   Haze
9:00 PM 51.8 °F 42.8 °F 71% 30.06 in 3.1 mi West 9.2 mph - N/A   Haze
10:00 PM 51.8 °F 42.8 °F 71% 30.06 in 3.1 mi West 5.8 mph - N/A   Haze
11:00 PM 51.8 °F 42.8 °F 71% 30.06 in 3.1 mi WSW 8.1 mph - N/A   Haze